Theta_e
301 301 300 300 300 300 300 300 301 301 301 302 302 303 303 303 304 305 305 302 306 310 312 315 316 317 318 319 319 320 321 321 321 321 322 323 324 325 326 327 330 333 335
300 299 299 299 299 299 299 299 298 299 299 300 300 301 302 303 303 303 305 306 306 310 313 315 315 316 317 317 318 319 319 319 319 319 319 320 320 321 322 323 325 327 330
299 298 298 298 298 298 298 298 298 299 299 299 299 300 301 301 302 302 304 307 307 304 306 309 310 312 312 314 314 315 315 316 316 316 316 317 317 319 320 321 322 323 324
297 297 297 297 297 297 297 296 297 297 298 298 299 300 301 301 301 302 304 306 306 305 304 304 303 305 307 308 310 310 311 311 312 312 313 314 315 315 316 317 319 319 320
296 296 297 297 296 296 296 295 296 296 296 298 297 298 300 301 301 302 303 303 302 303 303 300 299 299 302 305 307 309 310 311 311 311 311 311 312 314 314 315 315 317 319
295 295 295 295 295 294 295 295 294 296 296 296 295 296 299 301 302 303 301 301 300 301 301 300 301 301 298 301 303 306 308 309 309 309 310 311 311 312 312 313 314 315 317
293 294 294 294 294 293 293 293 294 294 295 296 295 297 298 300 300 299 300 300 299 300 299 299 299 300 299 298 300 303 305 306 308 308 309 309 310 311 311 312 313 315 316
292 292 293 292 292 292 292 292 293 293 294 294 293 294 294 296 299 298 299 298 298 299 297 297 297 297 298 298 298 300 302 304 306 306 306 307 307 308 309 310 311 312 314
291 292 291 291 291 291 291 292 292 291 292 294 293 293 293 293 294 296 297 297 297 297 297 297 296 296 296 297 297 298 298 300 302 303 304 305 306 307 308 309 309 310 312
289 290 290 290 290 291 290 291 292 291 290 291 293 293 293 292 292 293 296 296 296 295 295 295 296 296 295 297 296 295 295 297 298 300 301 303 305 306 307 308 309 309 311
289 289 289 289 289 289 290 289 289 289 289 288 289 289 290 292 291 291 291 294 295 296 295 294 295 296 295 295 295 294 293 295 297 297 298 300 302 304 306 307 308 308 309
288 288 288 288 288 288 288 288 287 287 286 287 287 287 286 287 288 288 286 288 288 292 293 294 295 296 295 295 293 292 292 294 296 297 298 299 301 303 304 305 307 307 308
287 287 287 287 288 288 288 287 286 286 286 286 286 286 286 286 286 286 284 284 285 290 291 293 294 295 293 294 293 290 291 293 295 296 298 299 300 301 302 304 305 306 306
287 287 286 286 286 286 286 286 286 286 286 286 286 285 285 285 286 285 284 283 283 288 290 288 293 294 293 292 290 290 292 292 293 295 297 297 298 299 300 301 302 302 303
286 284 284 284 285 285 285 285 285 284 285 285 285 284 284 284 285 285 284 284 283 283 287 289 289 291 291 290 289 289 290 291 292 294 294 295 296 297 298 299 298 300 301
284 283 283 283 283 284 284 284 284 285 284 284 284 283 283 284 284 283 284 284 285 283 281 287 289 289 287 287 289 289 289 289 291 292 292 293 294 295 296 296 297 298 298
282 282 282 282 282 282 283 283 283 284 283 283 284 283 282 283 282 282 283 283 283 283 281 284 287 288 285 286 288 288 289 290 291 290 290 292 292 293 293 294 295 295 295
282 282 282 281 281 282 283 282 282 283 283 282 282 282 281 282 281 282 281 282 282 283 282 279 284 285 286 287 286 286 287 288 288 288 289 290 290 290 290 291 292 292 292
281 281 281 281 281 282 282 283 283 283 283 282 281 279 279 280 279 281 281 281 282 282 281 280 281 286 286 287 285 287 287 287 288 288 288 287 288 288 288 289 289 290 291
279 280 281 281 282 282 282 283 283 281 281 281 280 279 279 280 279 280 281 281 281 282 282 281 282 284 285 286 285 284 283 285 284 288 287 287 287 286 287 287 288 289 290
279 280 281 281 282 282 283 282 281 280 280 280 280 279 279 280 281 281 280 281 281 281 282 282 282 283 283 283 281 282 281 282 285 286 285 286 286 287 286 287 286 289 290
276 278 279 279 280 281 282 282 282 281 281 280 280 281 281 280 280 282 282 282 283 282 282 282 282 281 281 282 282 281 281 280 280 287 283 283 285 285 285 285 285 287 289
277 276 276 278 279 280 281 282 282 283 283 282 281 281 281 282 281 281 282 283 283 284 285 284 282 282 282 282 281 280 281 280 280 283 281 281 285 284 285 284 283 285 287
277 278 278 278 278 279 281 282 282 282 282 282 282 282 282 282 283 281 281 281 280 281 282 283 284 284 283 283 282 282 281 280 281 282 280 278 284 283 284 285 282 282 283
277 278 278 279 278 279 281 282 282 282 282 282 282 282 282 281 282 283 281 280 280 281 282 284 284 285 285 284 284 283 281 280 278 281 280 278 281 280 281 282 282 281 281
276 277 277 278 279 279 280 281 282 282 281 281 281 281 281 281 282 283 281 281 280 280 281 281 281 282 284 284 284 282 281 278 278 278 279 277 279 278 279 283 281 281 280
Wind_Speed
2 2 3 3 4 5 5 5 5 5 5 6 5 5 6 5 4 3 2 4 5 4 3 4 5 5 6 7 7 8 9 9 10 12 13 14 15 15 16 15 14 11 18
2 3 3 3 4 4 5 5 6 6 6 5 6 5 5 5 5 4 2 3 4 5 7 8 9 8 8 8 8 9 10 10 12 13 13 13 14 15 17 19 19 19 19
2 3 3 4 4 4 6 5 5 5 6 5 6 5 5 4 4 4 3 2 5 7 9 9 10 11 10 10 10 11 11 12 13 13 13 14 15 16 17 19 20 21 22
3 3 3 3 3 4 4 5 5 6 5 5 5 5 4 4 3 3 3 3 3 2 6 10 10 10 11 11 11 11 12 11 12 13 14 15 15 16 17 18 19 21 23
3 3 3 3 4 4 4 5 5 5 6 5 6 5 4 3 4 4 5 4 4 3 2 4 8 8 11 12 12 12 12 13 13 14 15 15 16 17 18 19 21 22 23
3 3 3 4 4 4 4 4 6 5 6 5 6 4 3 3 4 5 4 4 3 4 4 5 4 4 7 11 11 12 13 13 14 15 16 17 17 18 19 21 23 24 25
3 4 3 4 4 5 5 5 5 5 5 5 5 3 3 3 6 3 3 3 3 2 4 5 4 4 4 7 10 12 13 13 14 15 16 17 18 18 19 21 22 24 26
3 4 4 4 4 4 5 5 4 4 3 4 3 3 4 4 4 4 3 3 2 2 4 6 5 5 5 4 8 11 14 15 16 16 17 17 18 19 21 22 23 24 26
5 5 5 4 4 4 4 4 4 4 3 1 3 4 3 1 1 4 6 3 1 4 5 6 6 5 5 5 6 8 14 17 18 17 18 19 20 21 22 24 25 26 26
5 5 5 5 4 3 5 4 3 4 3 3 2 3 3 3 2 3 3 2 3 5 4 6 4 3 4 4 8 9 15 17 18 19 20 19 20 21 22 24 24 25 25
6 5 6 5 5 4 4 4 4 4 2 3 3 3 3 1 2 2 2 2 3 3 3 5 3 2 3 6 8 10 17 18 18 18 18 18 20 21 23 24 24 24 24
4 6 6 5 5 5 5 4 4 5 4 3 2 2 2 2 1 2 3 5 6 3 4 4 3 0 3 6 9 14 18 19 18 19 19 20 21 22 23 23 24 25 26
5 5 6 6 5 5 5 5 5 5 4 4 4 4 3 4 2 3 4 5 4 3 3 3 1 1 2 7 10 16 19 18 18 19 20 21 21 22 21 22 24 25 27
5 4 5 6 6 6 6 5 5 5 4 4 5 4 4 4 3 4 4 3 6 6 4 3 2 2 3 9 13 18 12 18 18 20 20 20 21 21 20 19 21 23 24
5 5 5 6 6 6 5 5 5 4 4 4 4 5 5 4 3 4 4 6 6 4 2 2 2 2 7 9 11 12 12 16 21 19 20 19 20 22 22 18 19 22 24
6 6 7 7 7 7 6 6 6 5 6 5 5 6 6 4 4 4 5 6 7 6 4 2 3 9 7 8 10 10 12 15 16 17 18 19 19 20 19 18 18 20 23
7 7 8 8 8 8 7 7 7 7 7 7 7 6 6 4 3 4 5 6 7 6 7 6 7 7 9 8 9 9 10 9 9 14 17 17 18 19 19 19 19 19 21
7 8 8 9 9 8 8 8 8 7 8 8 7 6 4 2 5 6 7 8 6 6 7 11 8 5 8 9 8 9 7 6 7 11 15 14 16 16 18 18 18 19 20
8 8 9 10 10 9 8 8 9 8 8 8 7 6 5 4 7 8 8 7 6 5 7 7 9 8 7 7 9 7 7 7 5 9 10 14 12 13 15 16 15 18 19
7 9 10 10 9 9 9 9 8 8 8 8 8 8 7 8 9 9 8 8 6 7 8 8 9 8 6 5 6 8 9 8 9 4 7 8 9 10 12 13 13 17 17
8 9 10 10 9 9 8 9 8 9 9 9 9 8 9 11 15 13 7 8 8 8 7 7 8 7 6 5 5 5 8 9 8 2 9 7 6 6 6 8 10 16 17
7 9 10 11 11 8 14 16 13 9 10 9 9 9 10 11 15 19 18 19 14 9 9 8 7 8 9 6 5 6 7 6 5 2 8 9 3 5 4 5 11 14 16
7 9 10 11 12 11 15 17 17 9 9 10 11 10 9 8 10 11 14 18 18 20 20 12 11 10 10 7 5 7 7 7 8 7 7 6 3 6 3 4 9 12 13
8 8 9 10 11 10 16 17 17 12 11 13 13 11 11 11 10 10 10 11 12 13 13 11 12 11 10 8 7 7 9 9 9 7 3 5 3 6 5 4 6 11 11
7 8 8 9 10 11 14 15 14 11 12 14 12 13 13 13 14 17 12 12 12 12 12 19 19 18 17 15 13 7 7 7 7 4 3 3 3 6 5 4 3 8 8
7 6 8 9 10 11 12 14 13 8 11 9 11 12 15 16 17 17 13 12 11 13 9 8 8 12 14 11 13 10 7 8 7 7 3 3 3 4 5 1 3 3 5
Wind_Direction
5 344 345 335 336 331 333 326 323 319 312 309 304 299 300 302 300 301 295 52 1 6 9 29 33 24 21 17 8 357 350 350 349 347 345 344 338 335 328 323 324 293 279
343 335 329 330 325 331 328 321 321 312 304 298 291 285 286 282 282 291 280 123 55 54 59 54 47 37 32 25 16 10 5 359 359 355 350 344 337 332 329 327 322 316 312
320 318 317 318 330 326 310 305 301 293 289 291 285 283 276 260 270 260 240 194 138 73 51 52 47 38 27 19 11 6 358 352 347 343 344 341 336 333 333 330 323 317 307
289 288 296 303 326 311 313 309 307 301 288 296 298 290 274 260 237 221 185 167 144 97 91 50 34 28 23 13 6 359 353 347 342 338 335 330 326 322 319 318 318 311 309
263 274 280 301 308 303 300 307 302 298 300 300 302 292 271 252 208 173 151 133 96 57 51 56 20 29 14 10 5 360 355 353 348 344 339 332 324 318 313 312 309 310 304
241 259 271 283 293 293 291 299 298 298 296 308 301 283 261 192 170 163 149 138 77 72 36 16 356 20 8 6 10 359 354 350 345 340 338 337 332 325 320 314 311 306 303
234 257 263 276 284 287 300 298 300 295 294 321 281 194 159 156 153 143 158 150 86 75 9 0 355 357 360 7 11 3 0 352 342 338 339 335 331 328 325 320 315 310 304
253 261 267 268 275 284 277 285 298 304 281 328 311 272 195 168 188 189 185 176 115 23 13 359 356 359 5 4 6 5 5 352 343 334 327 319 315 314 313 310 307 305 305
251 256 252 259 262 269 276 283 294 301 301 289 336 317 225 202 210 174 199 207 288 1 0 349 344 359 12 15 3 354 352 340 329 322 318 316 314 311 310 307 305 303 302
253 247 251 252 259 264 264 272 284 304 295 284 272 353 350 345 308 206 178 238 291 317 336 328 319 346 20 14 0 348 339 334 331 326 317 311 311 312 310 307 302 302 301
245 239 243 241 250 251 251 261 275 287 286 285 297 316 327 335 323 280 294 300 313 284 291 306 304 291 29 18 352 345 334 328 323 316 310 309 311 315 313 304 302 305 308
239 230 232 244 249 251 249 241 251 253 247 242 251 260 264 272 180 268 272 301 301 287 283 289 249 237 43 2 338 335 326 319 315 316 319 317 314 306 305 308 310 310 311
236 232 230 239 245 246 247 248 245 241 240 242 236 236 241 246 265 255 261 276 282 316 265 242 304 23 40 343 336 335 321 313 320 321 323 316 306 303 305 309 309 310 310
243 239 238 250 251 246 244 244 243 239 239 245 249 242 257 248 237 241 246 291 293 240 240 289 310 326 2 339 329 328 318 315 320 321 322 318 309 307 309 313 314 310 313
231 221 225 240 248 244 249 258 247 238 241 244 245 238 243 246 238 248 256 248 258 297 292 157 302 91 337 331 322 318 313 310 317 317 318 316 315 314 314 319 320 317 314
237 229 229 235 240 236 232 233 238 232 236 238 239 236 238 235 231 232 239 244 245 259 275 329 306 323 326 312 308 306 310 307 314 316 317 320 321 321 319 323 324 318 315
234 237 238 238 237 237 231 232 237 240 234 239 233 237 245 244 244 244 236 241 245 246 268 290 291 306 309 305 307 313 314 322 318 316 321 322 328 324 328 331 328 324 321
232 238 239 237 235 232 232 231 234 227 228 236 234 239 241 242 246 239 233 229 236 251 269 284 298 297 301 311 303 311 312 311 303 312 318 321 325 330 335 337 333 331 331
239 237 237 236 233 232 230 229 231 229 223 233 235 235 240 233 246 244 231 224 228 244 252 263 278 295 305 311 325 314 317 315 307 300 310 322 327 339 345 346 340 341 333
240 242 240 239 234 233 229 227 219 224 230 234 234 232 235 234 236 238 228 228 230 236 245 256 271 287 303 309 297 312 331 333 327 323 311 313 316 330 348 351 348 343 340
244 242 245 244 237 232 226 219 221 231 235 238 237 234 233 234 236 236 238 233 224 230 244 255 269 285 288 306 317 326 313 318 312 297 331 321 319 327 348 339 335 344 348
245 249 247 245 244 237 235 232 228 232 237 242 249 242 236 231 236 238 238 241 241 241 249 258 267 271 281 287 291 306 311 332 324 138 338 314 312 316 326 342 330 336 342
251 244 245 244 245 246 243 238 241 244 245 243 244 244 244 236 230 241 242 245 246 246 245 256 262 260 276 277 286 294 291 292 281 302 323 296 302 302 314 308 335 333 335
251 251 249 243 246 248 246 245 247 247 247 248 246 244 245 247 238 235 241 244 243 242 238 239 246 255 261 264 257 270 291 293 284 271 207 276 329 295 314 286 348 346 340
269 260 257 260 256 258 255 254 251 248 247 250 247 246 244 249 246 239 239 248 250 246 233 240 243 248 252 251 249 273 269 280 296 278 198 276 312 305 299 279 337 348 349
282 280 277 272 268 271 268 264 259 250 249 249 251 249 241 246 253 243 239 245 246 249 232 234 240 247 252 253 248 241 257 257 267 288 141 268 320 340 308 179 272 327 335